This demonstration page uses our WeatherBlox Daily Observations layout. Learn more.

38.88101, -77.10428

Hourly Observations for August 29, 2017

Temp ( °F °C ) Dew Point ( °F °C ) Humidity (%) Winds ( mph kmh ) Pressure ( in mb ) Visibility ( mi km ) Precip ( " mm )
12:52 am 00:52 Cloudy 69 20.6 58 14.4 68 68 NE 9 15 30.17 1022 10 16.0934 0 0
1:52 am 01:52 Cloudy 68 20 58 14.4 70 70 NE 10 17 30.16 1022 10 16.0934 0 0
2:52 am 02:52 Cloudy 68 20 60 15.6 76 76 ENE 10 17 30.15 1021 10 16.0934 0 0
3:52 am 03:52 Cloudy with Light Rain 67 19.4 61 16.1 81 81 ENE 12 19 30.13 1020 7 11.26538 0.02 0.508
4:52 am 04:52 Cloudy with Light Rain 65 18.3 62 16.7 90 90 ENE 12 19 30.13 1020 7 11.26538 0.06 1.524
5:52 am 05:52 Cloudy with Light Rain 65 18.3 63 17.2 93 93 NE 10 17 30.11 1020 9 14.48406 0.05 1.27
6:52 am 06:52 Cloudy with Light Rain 65 18.3 63 17.2 93 93 NNE 12 19 30.11 1020 6 9.65604 0.05 1.27
7:29 am 07:29 Cloudy with Light Rain 65 18.3 63 17.2 93 93 N 10 17 30.12 1020 7 11.26538 0.02 0.508
7:45 am 07:45 Cloudy with Light Rain 65 18.3 63 17.2 93 93 NNE 10 17 30.12 1020 10 16.0934 0.02 0.508
7:52 am 07:52 Cloudy with Light Rain 65 18.3 63 17.2 93 93 NNE 10 17 30.12 1020 10 16.0934 0.02 0.508
8:39 am 08:39 Cloudy with Light Rain 65 18.3 64 17.8 97 97 NNE 13 20 30.09 1019 10 16.0934 0.02 0.508
8:52 am 08:52 Cloudy with Light Rain 66 18.9 65 18.3 96 96 NNE 12 19 30.1 1019 10 16.0934 0.02 0.508
9:29 am 09:29 Cloudy with Light Rain 67 19.4 66 18.9 97 97 NNE 15 24 30.09 1019 10 16.0934 0.01 0.254
9:52 am 09:52 Cloudy with Light Rain 67 19.4 66 18.9 97 97 NNE 12 19 30.09 1019 10 16.0934 0.01 0.254
10:18 am 10:18 Cloudy with Light Rain 68 20 66 18.9 93 93 NNE 12 19 30.09 1019 8 12.87472 0.01 0.254
10:52 am 10:52 Cloudy with Rain 68 20 67 19.4 96 96 NE 13 20 30.1 1019 5 8.0467 0.05 1.27
11:11 am 11:11 Cloudy with Rain 68 20 67 19.4 96 96 NNE 13 20 30.09 1019 5 8.0467 0.04 1.016
11:27 am 11:27 Cloudy with Rain 68 20 67 19.4 96 96 NE 12 19 30.09 1019 4 6.43736 0.07 1.778
11:52 am 11:52 Cloudy with Rain 68 20 67 19.4 96 96 ENE 15 24 30.07 1018 5 8.0467 0.13 3.302
12:52 pm 12:52 Cloudy with Light Rain 68 20 67 19.4 96 96 NE 9 15 30.06 1018 6 9.65604 0.09 2.286
1:52 pm 13:52 Cloudy with Light Rain 68 20 67 19.4 96 96 NE 13 20 30.04 1017 8 12.87472 0.1 2.54
2:20 pm 14:20 Cloudy with Light Rain 68 20 67 19.4 96 96 NE 12 19 30.06 1018 7 11.26538 0.04 1.016
2:25 pm 14:25 Cloudy with Rain 68 20 67 19.4 96 96 NE 10 17 30.03 1017 6 9.65604 0.05 1.27
2:52 pm 14:52 Cloudy with Rain 68 20 67 19.4 96 96 NE 12 19 30.03 1017 6 9.65604 0.11 2.794
3:00 pm 15:00 Cloudy with Light Rain 68 20 67 19.4 96 96 NE 12 19 30.03 1017 7 11.26538 0.01 0.254
3:20 pm 15:20 Cloudy with Rain 68 20 67 19.4 96 96 NE 12 19 30.03 1017 7 11.26538 0.04 1.016
3:38 pm 15:38 Cloudy with Rain 68 20 67 19.4 96 96 ENE 13 20 30 1016 7 11.26538 0.08 2.032
3:40 pm 15:40 Cloudy with Light Rain 68 20 67 19.4 96 96 NE 13 20 30 1016 7 11.26538 0.08 2.032
3:52 pm 15:52 Cloudy with Rain 68 20 67 19.4 96 96 ENE 13 20 30 1016 8 12.87472 0.1 2.54
4:02 pm 16:02 Cloudy with Rain 68 20 67 19.4 96 96 NE 9 15 30 1016 5 8.0467 0.03 0.762
4:06 pm 16:06 Cloudy with Rain 68 20 67 19.4 96 96 NE 10 17 30 1016 5 8.0467 0.04 1.016
4:14 pm 16:14 Cloudy with Rain 68 20 67 19.4 96 96 NE 10 17 30 1016 5 8.0467 0.05 1.27
4:17 pm 16:17 Cloudy with Rain 68 20 67 19.4 96 96 NE 10 17 30 1016 5 8.0467 0.06 1.524
4:23 pm 16:23 Cloudy with Rain 69 20.6 68 20 96 96 NE 12 19 30 1016 5 8.0467 0.07 1.778
4:41 pm 16:41 Cloudy with Rain 68 20 67 19.4 96 96 NNE 12 19 30 1016 5 8.0467 0.1 2.54
4:46 pm 16:46 Cloudy with Rain 68 20 66 19 94 94 NNE 13 20 30 1016 5 8.0467 0.12 3.048
4:52 pm 16:52 Cloudy with Light Rain 68 20 67 19.4 96 96 N 12 19 30.01 1016 7 11.26538 0.12 3.048
4:58 pm 16:58 Cloudy with Light Rain 68 20 67 19.4 96 96 NNE 13 20 30 1016 9 14.48406 0.01 0.254
5:00 pm 17:00 Cloudy with Light Rain 68 20 67 19.4 96 96 N 12 19 30 1016 9 14.48406 0.01 0.254
5:27 pm 17:27 Cloudy with Light Rain 69 20.6 67 19.4 93 93 NNE 16 26 30 1016 10 16.0934 0.02 0.508
5:52 pm 17:52 Cloudy with Light Rain 68 20 66 18.9 93 93 NNE 13 20 30.01 1016 10 16.0934 0.04 1.016
5:54 pm 17:54 Cloudy with Light Rain 68 20 66 18.9 93 93 NNE 14 22 30 1016 10 16.0934 0 0.0254
6:37 pm 18:37 Cloudy with Light Rain 68 20 66 18.9 93 93 N 12 19 30 1016 10 16.0934 0 0.0254
6:52 pm 18:52 Cloudy 68 20 66 18.9 93 93 NNE 10 17 30 1016 10 16.0934 0 0.0254
7:06 pm 19:06 Cloudy 68 20 66 18.9 93 93 NNE 14 22 30 1016 10 16.0934 0 0
7:15 pm 19:15 Cloudy with Light Drizzle 68 20 66 18.9 93 93 NNE 14 22 30 1016 4 6.43736 0 0.0254
7:19 pm 19:19 Cloudy with Light Rain 68 20 67 19.4 96 96 NNE 14 22 30 1016 2.5 4.02335 0 0.0254
7:22 pm 19:22 Cloudy with Light Rain 68 20 66 18.9 93 93 NNE 10 17 30 1016 2 3.21868 0 0.0254
7:25 pm 19:25 Cloudy with Light Rain 68 20 66 18.9 93 93 NNE 9 15 30 1016 2.5 4.02335 0.01 0.254
7:28 pm 19:28 Cloudy with Light Rain 67 19.4 66 18.9 97 97 N 12 19 30 1016 3 4.82802 0.01 0.254
7:31 pm 19:31 Cloudy with Light Rain 67 19.4 66 18.9 97 97 NNE 15 24 30 1016 6 9.65604 0.01 0.254
7:34 pm 19:34 Cloudy with Light Rain 67 19.4 66 18.9 97 97 N 14 22 30 1016 10 16.0934 0.01 0.254
7:45 pm 19:45 Cloudy with Light Rain 67 19.4 66 18.9 97 97 N 15 24 30 1016 6 9.65604 0.01 0.254
7:52 pm 19:52 Cloudy 67 19.4 66 18.9 97 97 NNE 13 20 30 1016 10 16.0934 0.01 0.254
7:59 pm 19:59 Cloudy 67 19.4 66 18.9 97 97 NNE 12 19 30 1016 10 16.0934 0 0
8:16 pm 20:16 Cloudy 67 19.4 65 18.3 93 93 NNE 14 22 30 1016 10 16.0934 0 0
8:21 pm 20:21 Cloudy 67 19.4 65 18.3 93 93 NNE 14 22 30 1016 10 16.0934 0 0
8:33 pm 20:33 Cloudy 67 19.4 65 18.3 93 93 NNE 13 20 30 1016 10 16.0934 0 0
8:52 pm 20:52 Cloudy 67 19.4 65 18.3 93 93 NNE 12 19 30.01 1016 10 16.0934 0 0
9:52 pm 21:52 Cloudy 67 19.4 64 17.8 91 91 NNE 13 20 30.02 1017 10 16.0934 0 0
9:57 pm 21:57 Cloudy 67 19.4 64 17.8 91 91 N 15 24 30.03 1017 10 16.0934 0 0
10:16 pm 22:16 Cloudy 67 19.4 64 17.8 91 91 N 13 20 30.03 1017 10 16.0934 0 0
10:47 pm 22:47 Cloudy 66 19 63 17 88 88 N 13 20 30.03 1017 10 16.0934 0 0
10:52 pm 22:52 Cloudy 66 18.9 63 17.2 90 90 N 14 22 30.02 1017 10 16.0934 0 0
11:17 pm 23:17 Cloudy 66 18.9 63 17.2 90 90 N 9 15 30.03 1017 10 16.0934 0 0
11:52 pm 23:52 Cloudy 65 18.3 62 16.7 90 90 N 13 20 30.01 1016 10 16.0934 0 0

Powered by AerisWeather